Vancouver, WA
on Sunday, November 18, 2012

Sunday
Previous Day Next Day
Daily Summary
 ActualAverageRecord
Temperature
Mean Temperature °F 46°F  
Max Temperature 53°F 52°F 65°F (1897)
Min Temperature 45°F 40°F 20°F (2000)
Degree Days
Heating Degree Days 16    
Month to date heating degree days 270  
Since 1 July heating degree days 589  
Cooling Degree Days 0    
Month to date cooling degree days 0  
Year to date cooling degree days 398  
Moisture
Dew Point 43°F   
Average Humidity 81    
Maximum Humidity 86    
Minimum Humidity 76    
Precipitation
Precipitation 0.49 in 0.20 in 3.25 in (1946)
Month to date precipitation 2.39 3.32  
Year to date precipitation 33.55 29.78  
Snow
Snow 0.00 in in in ()
Month to date snowfall 0.0  
Since 1 July snowfall 0.0  
Since 1 September snowfall 0.0  
Snow Depth 0.00 in   
Wind
Wind Speed 8 mph   
Max Wind Speed 15 mph   
Max Gust Speed 23 mph   
Visibility 10 miles   
Events Rain   

Key: T is trace of precipitation, MM is missing value
Source: NWS Daily Summary
Time(PST)TemperatureDew PointHumidity Pressure Visibility Wind DirectionWind SpeedGust SpeedPrecipitationEvents Conditions
12:02 AM 46.4°F 39.2°F 76% 29.82 in 10.0 miles Variable 6.9 mph - N/A   Mostly Cloudy
12:53 AM 45.0°F 39.0°F 80% 29.82 in 10.0 miles South 9.2 mph - N/A   Scattered Clouds
1:53 AM 46.0°F 39.0°F 76% 29.83 in 10.0 miles South 6.9 mph - N/A   Mostly Cloudy
2:53 AM 46.0°F 39.9°F 79% 29.84 in 10.0 miles SSE 8.1 mph - 0.00 in Rain Light Rain
3:53 AM 46.0°F 39.9°F 79% 29.85 in 10.0 miles SSE 9.2 mph - 0.00 in   Overcast
4:53 AM 46.9°F 39.9°F 77% 29.84 in 10.0 miles SSE 6.9 mph 18.4 mph N/A   Mostly Cloudy
5:53 AM 46.9°F 39.9°F 77% 29.84 in 10.0 miles SSE 10.4 mph - N/A   Overcast
6:53 AM 46.0°F 42.1°F 86% 29.83 in 10.0 miles SSE 3.5 mph - 0.03 in Rain Light Rain
7:53 AM 46.0°F 42.1°F 86% 29.83 in 10.0 miles ESE 8.1 mph - 0.00 in Rain Light Rain
8:02 AM 46.4°F 42.8°F 87% 29.83 in 10.0 miles East 5.8 mph - 0.00 in Rain Light Rain
8:53 AM 46.9°F 42.1°F 83% 29.84 in 10.0 miles SE 9.2 mph - 0.00 in   Overcast
9:18 AM 46.4°F 42.8°F 87% 29.84 in 10.0 miles SE 8.1 mph 16.1 mph N/A   Overcast
9:53 AM 48.0°F 43.0°F 83% 29.83 in 10.0 miles SE 6.9 mph - N/A   Overcast
10:53 AM 48.9°F 43.0°F 80% 29.83 in 10.0 miles ESE 8.1 mph - 0.00 in   Overcast
11:53 AM 50.0°F 42.1°F 74% 29.80 in 10.0 miles SSE 11.5 mph 17.3 mph 0.00 in Rain Light Rain
12:53 PM 50.0°F 44.1°F 80% 29.76 in 10.0 miles ESE 10.4 mph - 0.00 in Rain Light Rain
1:53 PM 48.9°F 44.1°F 83% 29.74 in 10.0 miles ESE 13.8 mph 18.4 mph 0.01 in Rain Light Rain
2:53 PM 48.9°F 44.1°F 83% 29.73 in 10.0 miles ESE 11.5 mph - 0.01 in Rain Light Rain
3:53 PM 50.0°F 44.1°F 80% 29.70 in 10.0 miles SE 9.2 mph - 0.00 in Rain Light Rain
4:53 PM 48.9°F 44.1°F 83% 29.69 in 10.0 miles SE 9.2 mph 17.3 mph 0.02 in Rain Light Rain
5:53 PM 48.9°F 44.1°F 83% 29.68 in 10.0 miles ESE 9.2 mph - 0.03 in Rain Light Rain
6:53 PM 48.9°F 44.1°F 83% 29.66 in 10.0 miles ESE 10.4 mph - 0.04 in Rain Light Rain
7:53 PM 51.1°F 43.0°F 74% 29.66 in 10.0 miles ESE 6.9 mph 16.1 mph 0.00 in   Overcast
8:53 PM 53.1°F 43.0°F 69% 29.66 in 10.0 miles Variable 6.9 mph 20.7 mph 0.01 in Rain Light Rain
9:53 PM 52.0°F 44.1°F 74% 29.66 in 7.0 miles South 8.1 mph - 0.04 in Rain Rain
10:53 PM 50.0°F 46.0°F 86% 29.67 in 5.0 miles Calm Calm - 0.16 in Rain Rain
11:53 PM 50.0°F 46.9°F 89% 29.68 in 7.0 miles SE 6.9 mph - 0.13 in Rain Rain
Moon Phase
Nov. 18 Nov. 20 Nov. 28 Dec. 06 Dec. 13
Sunrise:07:14 AM (PST) Moon Rise:11:41 AM (PST)11/18
Sunset:04:36 PM (PST) Moon Set:10:07 PM (PST)11/18

Copyright © 2014 The Weather Underground, Inc.